Burnwell, AL

1:29 PM CDT on September 27, 2016 (GMT -0500)
Walker County-Bevill

Weather History for KJFX - October, 2012

Change the Weather History Date:

Tuesday, October 30, 2012

  Actual Average Record
Temperature  
Mean Temperature 48 °F -  
Max Temperature 62 °F 70 °F 86 °F (1961)
Min Temperature 33 °F 44 °F 25 °F (1963)
Degree Days  
Heating Degree Days 18    
Moisture  
Dew Point 31 °F    
Average Humidity 62    
Maximum Humidity 93    
Minimum Humidity 27    
Precipitation  
Precipitation 0.00 in - - ()
Sea Level Pressure  
Sea Level Pressure 29.92 in    
Wind  
Wind Speed 8 mph (WNW)    
Max Wind Speed 20 mph    
Max Gust Speed 29 mph    
Visibility 10 miles    
Events Rain    
Averages and records for this station are not official NWS values.
T = Trace of Precipitation, MM = Missing Value Source: NWS Daily Summary

Daily Weather History Graph

Daily Weather History Graph

Search for Another Location

Airport or City:

Trip Planner

Search our weather history database for the weather conditions in past years. The results will help you decide how hot, cold, wet, or windy it might be!

Date:

Astronomy

Oct. 30, 2012 Rise Set
Actual Time 7:07 AM CDT 5:58 PM CDT
Civil Twilight 6:41 AM CDT 6:23 PM CDT
Nautical Twilight 6:12 AM CDT 6:53 PM CDT
Astronomical Twilight 5:42 AM CDT 7:22 PM CDT
Moon 6:31 PM CDT (10/30) 7:50 AM CDT (10/30)
Length of Visible Light 11h 42m
Length of Day
10h 50m
Full, 99% of the Moon is Illuminated
Oct 30
Full
Nov 6
Last Quarter
Nov 13
New
Nov 20
First Quarter
Nov 28
Full

Hourly Weather History & Observations

Time (CDT) Temp. Windchill Dew Point Humidity Pressure Visibility Wind Dir Wind Speed Gust Speed Precip Events Conditions
12:15 AM 39.2 °F 35.0 °F 30.2 °F 70% 29.98 in 10.0 mi WNW 5.8 mph - N/A   Clear
12:35 AM 37.4 °F 31.4 °F 32.0 °F 81% 29.98 in 10.0 mi WNW 8.1 mph - N/A Rain Light Rain
12:55 AM 39.2 °F 33.6 °F 32.0 °F 75% 29.97 in 10.0 mi WNW 8.1 mph - N/A   Clear
1:15 AM 39.2 °F 35.0 °F 32.0 °F 75% 29.96 in 10.0 mi WNW 5.8 mph - N/A Rain Light Rain
1:35 AM 37.4 °F 33.8 °F 32.0 °F 81% 29.96 in 10.0 mi WNW 4.6 mph - N/A   Clear
2:15 AM 37.4 °F 31.4 °F 32.0 °F 81% 29.95 in 10.0 mi WNW 8.1 mph - N/A Rain Light Rain
2:55 AM 37.4 °F 33.8 °F 32.0 °F 81% 29.94 in 10.0 mi West 4.6 mph - N/A Rain Light Rain
3:15 AM 35.6 °F 30.7 °F 30.2 °F 81% 29.94 in 10.0 mi WNW 5.8 mph - N/A   Clear
3:35 AM 35.6 °F 30.7 °F 32.0 °F 87% 29.93 in 10.0 mi WNW 5.8 mph - N/A   Clear
3:55 AM 35.6 °F 30.7 °F 32.0 °F 87% 29.93 in 10.0 mi WNW 5.8 mph - N/A   Clear
4:15 AM 35.6 °F 31.7 °F 30.2 °F 81% 29.93 in 10.0 mi WNW 4.6 mph - N/A Rain Light Rain
4:35 AM 35.6 °F 30.7 °F 32.0 °F 87% 29.93 in - WNW 5.8 mph - N/A   Unknown
5:15 AM 35.6 °F 30.7 °F 32.0 °F 87% 29.94 in - WNW 5.8 mph - N/A   Unknown
5:35 AM 35.6 °F 30.7 °F 30.2 °F 81% 29.94 in - WNW 5.8 mph - N/A   Clear
6:35 AM 33.8 °F 29.6 °F 30.2 °F 87% 29.94 in - West 4.6 mph - N/A   Unknown
6:55 AM 33.8 °F 28.6 °F 30.2 °F 87% 29.94 in - West 5.8 mph - N/A Rain Light Rain
7:15 AM 35.6 °F 30.7 °F 32.0 °F 87% 29.95 in - West 5.8 mph - N/A   Unknown
7:35 AM 35.6 °F 29.9 °F 32.0 °F 87% 29.95 in - West 6.9 mph - N/A   Unknown
8:15 AM 37.4 °F 31.4 °F 32.0 °F 81% 29.96 in - WNW 8.1 mph - N/A   Clear
8:35 AM 41.0 °F 35.8 °F 32.0 °F 70% 29.96 in - WNW 8.1 mph - N/A   Clear
8:55 AM 42.8 °F 38.0 °F 32.0 °F 66% 29.96 in - WNW 8.1 mph - N/A   Clear
9:15 AM 44.6 °F 38.8 °F 32.0 °F 61% 29.96 in - WNW 11.5 mph - N/A   Clear
10:15 AM 50.0 °F - 32.0 °F 50% 29.95 in - WNW 13.8 mph 18.4 mph N/A Rain Light Rain
10:35 AM 51.8 °F - 30.2 °F 44% 29.96 in - WNW 12.7 mph 20.7 mph N/A   Clear
10:55 AM 51.8 °F - 30.2 °F 44% 29.96 in - WNW 12.7 mph 19.6 mph N/A   Clear
11:15 AM 53.6 °F - 28.4 °F 38% 29.95 in - WNW 17.3 mph 21.9 mph N/A Rain Light Rain
11:35 AM 55.4 °F - 28.4 °F 36% 29.95 in - WNW 12.7 mph 20.7 mph N/A   Clear
11:55 AM 55.4 °F - 28.4 °F 36% 29.94 in - WNW 19.6 mph - N/A Rain Light Rain
12:15 PM 57.2 °F - 28.4 °F 33% 29.93 in - NW 12.7 mph 23.0 mph N/A   Clear
12:35 PM 59.0 °F - 26.6 °F 29% 29.92 in - NW 16.1 mph 21.9 mph N/A Rain Light Rain
12:55 PM 59.0 °F - 28.4 °F 31% 29.91 in - NW 17.3 mph 25.3 mph N/A Rain Light Rain
1:15 PM 60.8 °F - 28.4 °F 29% 29.90 in - NW 12.7 mph 25.3 mph N/A   Clear
1:35 PM 60.8 °F - 28.4 °F 29% 29.90 in - WNW 18.4 mph 26.5 mph N/A   Clear
2:15 PM 60.8 °F - 28.4 °F 29% 29.88 in - WNW 19.6 mph 28.8 mph N/A Rain Light Rain
2:35 PM 62.6 °F - 28.4 °F 27% 29.88 in - NW 19.6 mph 26.5 mph N/A   Clear
2:55 PM 62.6 °F - 30.2 °F 30% 29.88 in - West 17.3 mph 24.2 mph N/A   Clear
3:15 PM 60.8 °F - 30.2 °F 31% 29.87 in - West 17.3 mph 23.0 mph N/A   Clear
3:35 PM 60.8 °F - 30.2 °F 31% 29.87 in - West 13.8 mph 20.7 mph N/A   Clear
3:55 PM 60.8 °F - 30.2 °F 31% 29.87 in - WNW 13.8 mph 24.2 mph N/A   Clear
4:15 PM 60.8 °F - 30.2 °F 31% 29.87 in - West 15.0 mph 20.7 mph N/A   Clear
4:35 PM 60.8 °F - 30.2 °F 31% 29.86 in - WNW 12.7 mph - N/A   Clear
4:55 PM 60.8 °F - 30.2 °F 31% 29.86 in - WNW 15.0 mph 18.4 mph N/A   Clear
5:15 PM 59.0 °F - 28.4 °F 31% 29.87 in - WNW 13.8 mph 24.2 mph N/A   Clear
5:35 PM 57.2 °F - 30.2 °F 36% 29.87 in - WNW 9.2 mph - N/A   Clear
5:55 PM 55.4 °F - 30.2 °F 38% 29.87 in - West 12.7 mph 16.1 mph N/A   Clear
6:15 PM 51.8 °F - 32.0 °F 47% 29.88 in - West 5.8 mph - N/A   Clear
6:35 PM 50.0 °F - 32.0 °F 50% 29.88 in - West 4.6 mph - N/A Rain Light Rain
6:55 PM 48.2 °F - 32.0 °F 54% 29.89 in - West 3.5 mph - N/A Rain Light Rain
7:15 PM 46.4 °F - 32.0 °F 57% 29.90 in - Calm Calm - N/A Rain Light Rain
7:35 PM 42.8 °F - 33.8 °F 70% 29.90 in - Calm Calm - N/A Rain Light Rain
8:15 PM 41.0 °F 39.0 °F 33.8 °F 76% 29.92 in - West 3.5 mph - N/A Rain Light Rain
8:35 PM 41.0 °F - 33.8 °F 76% 29.92 in - Calm Calm - N/A Rain Light Rain
8:55 PM 39.2 °F - 33.8 °F 81% 29.93 in - Calm Calm - N/A Rain Light Rain
9:15 PM 37.4 °F - 33.8 °F 87% 29.93 in - Calm Calm - N/A Rain Light Rain
9:35 PM 37.4 °F - 33.8 °F 87% 29.94 in - Calm Calm - N/A Rain Light Rain
10:15 PM 35.6 °F - 33.8 °F 93% 29.93 in - Calm Calm - N/A Rain Light Rain
10:35 PM 35.6 °F - 33.8 °F 93% 29.93 in - Calm Calm - N/A   Unknown
10:55 PM 35.6 °F - 33.8 °F 93% 29.94 in - Calm Calm - N/A Rain Light Rain
11:15 PM 35.6 °F - 33.8 °F 93% 29.94 in - Calm Calm - N/A Rain Light Rain
11:35 PM 35.6 °F - 33.8 °F 93% 29.94 in - Calm Calm - N/A Rain Light Rain
11:55 PM 35.6 °F - 33.8 °F 93% 29.94 in - Calm Calm - N/A   Unknown